COSMOS 2251 DEB

Satellite information

Favourite Embed

Satellite Type and Status

DEBRISIN ORBIT

Key statistics

Satellite COSMOS 2251 DEB at a glance.

Uptime

11869

Days in orbit

Revolutions

≈ 14.3

Per day

Orbit

LEO

Low Earth Orbit

Inclination

74.1

Latest

Satellite identification and parameters

Extended collection of information and parameters for COSMOS 2251 DEB.

Object identification

Identified? True

Debris? True

Object name: COSMOS 2251 DEB

International designator: 1993-036DL

Object number (NORAD): 33907

Object ID (CCSDS): 33907

Country: COMMONWEALTH OF INDEPENDENT STATES (CIS)

Current information (Y/N): Y

RCS size: SMALL

Orbital parameters

Period: 100.664 minutes

Inclination: 74.0705 deg

SMA: 7168.197 km

Apoapsis: 870.445 km

Periapsis: 709.679 km

RAAN: 34.5247 deg

Eccentricy: 0.0112138

Argument of periapsis: 90.1447 deg

Mean anomaly: 343.5147 deg

Mean motion: 14.30499994 rev/day

Mean motion (dot): 0.00007415 rev/day2

B* drag term: 0.0026638231 1/REarth

Two-line elements (TLE)

Creation date: Dec. 12, 2025, 10:14 a.m.

Reference frame: TEME

Reference center: EARTH

Epoch: Dec. 12, 2025, 6:12 a.m. UTC

TLE line 0: 0 COSMOS 2251 DEB

TLE line 1: 1 33907U 93036DL 25346.25894542 .00007415 00000-0 26638-2 0 9996

TLE line 2: 2 33907 74.0705 34.5247 0112138 90.1447 343.5147 14.30499994865731

Live tracking on map

Real-time ground track for satellite COSMOS 2251 DEB.

In-orbit conjunctions

A list of the most updated potential collisions computed for object COSMOS 2251 DEB.

Target Orbit TCA Probability of collision Miss distance Type
ERS 2 DEB SSO 2025-11-01 20:09:26 0.0004350657 48.0 (m) DEBRIS
FENGYUN 1C DEB SSO 2025-05-18 15:52:01 0.000104649 77.0 (m) DEBRIS
FENGYUN 1C DEB SSO 2024-11-04 06:31:32 0.0001152148 107.0 (m) DEBRIS

Associated space launch

Military communications satellite. Destroyed in a collision with Iridium 33.

COSMOS 2251 DEB was lifted into orbit during the mission ‘Kosmos-3M | Strela-2M 51’, on board a Kosmos-3M space rocket.

The launch took place on June 16, 1993, 4:17 a.m. from 132/1 (132L).

For more information about the launch, click the button.

Launch to space Kosmos-3M | Strela-2M 51
Kosmos-3M | Strela-2M 51

Agency: N/A

Status: Launch Successful

Launch date: June 16, 1993, 4:17 a.m. UTC

Rocket: Kosmos-3M

Launch pad: 132/1 (132L)

Location: Plesetsk Cosmodrome, Russian Federation

...

Latest news about this satellite

There are no fresh news available about this satellite. Check back as we update our databases every day.


Newsletter sign-up

Weekly statistics, charts and insights to help you stay on top of the space industry.